Погода в Слободском

Россия / Орловская область     52°31′46″N   36°00′45″E
темп.,
°C
ветер,
м/с
пор.,
м/с
влажн.,
%
обл.,
%
осадки,
мм/ч
давл.,
гПа
погр.,
м
17 августа, ср
ср1700:00+21всв3755100 0.0 1015125
03:00+22всв41051100 0.0 1014205
06:00+22в51141100 0.0 1014272
09:00+23в61146100 0.0 1014371
12:00+23в594696 0.0 1014483
15:00+25всв5743100 0.0 1013501
18:00+23всв5114998 0.0 1013388
21:00+21св61655100 0.0 1013481
18 августа, чт
чт1800:00+21всв6135253 0.0 1012416
03:00+20всв5135474 0.0 1012430
06:00+19св6125948 0.0 1012307
09:00+23всв7144645 0.0 1012707
12:00+27всв81136100 0.0 10121180
15:00+27в81035100 0.0 10121785
18:00+26всв7104464 0.0 1012875
21:00+23всв7155045 0.0 1013684
19 августа, пт
пт1900:00+21всв714537 0.0 1014591
03:00+19всв7136377 0.0 1014581
06:00+18всв714678 0.0 1015627
09:00+21в8126113 0.0 1016962
12:00+24в9105597 0.0 10171530
15:00+23в91160100 0.0 10181497
18:00+19в8117099 0.1 1019793
21:00+17в6136395 0.1 1019500
20 августа, сб
сб2000:00+17в515555 0.0 1019466
03:00+20в6134945 0.0 1018546
06:00+19в6135025 0.0 1018583
09:00+21в9135820 0.0 1019956
12:00+27вюв8113828 0.0 10181762
15:00+28юв81033100 0.0 10181859
18:00+26вюв51039100 0.0 1018785
21:00+22вюв51345100 0.0 1020530
21 августа, вс
вс2100:00+25вюв101731100 0.0 1018883
03:00+23вюв91629100 0.0 1019826
06:00+21вюв61231100 0.0 1020449
09:00+21вюв51136100 0.0 1020444
12:00+24вюв6102999 0.0 1020842
15:00+26вюв71126100 0.0 10191183
18:00+25вюв71225100 0.0 1019854
21:00+21в5142999 0.0 1019334